Weather History for Culpeper, VA

Change the Weather History Date:

Tuesday, March 19, 2013

  Actual Average (KOMH) Record (KOMH)
Temperature  
Mean Temperature 52 °F -  
Max Temperature 64 °F 54 °F 82 °F (1989)
Min Temperature 39 °F 32 °F 15 °F (1967)
Degree Days  
Heating Degree Days 14    
Growing Degree Days 2 (Base 50)    
Moisture  
Dew Point 34 °F    
Average Humidity 70    
Maximum Humidity 100    
Minimum Humidity 18    
Precipitation  
Precipitation 0.00 in - - ()
Sea Level Pressure  
Sea Level Pressure 29.83 in    
Wind  
Wind Speed 4 mph (WSW)    
Max Wind Speed 26 mph    
Max Gust Speed 33 mph    
Visibility 7 miles    
Events      
Averages and records for this station are not official NWS values.
T = Trace of Precipitation, MM = Missing Value Source: NWS Daily Summary

Daily Weather History Graph

Daily Weather History Graph

Search for Another Location

Airport:

Trip Planner

Search our weather history database for the weather conditions in past years. The results will help you decide how hot, cold, wet, or windy it might be!

Date:

Astronomy

Mar. 19, 2013 Rise Set
Actual Time 7:16 AM EDT 7:22 PM EDT
Civil Twilight 6:49 AM EDT 7:49 PM EDT
Nautical Twilight 6:18 AM EDT 8:20 PM EDT
Astronomical Twilight 5:47 AM EDT 8:51 PM EDT
Moon 12:08 PM EDT (3/19) 2:04 AM EDT (3/19)
Length of Visible Light 12h 59m
Length of Day
12h 06m
Waxing Crescent, 49% of the Moon is Illuminated
Mar 19
Waxing Crescent
Mar 19
First Quarter
Mar 27
Full
Apr 3
Last Quarter
Apr 10
New

Hourly Weather History & Observations

Time (EDT) Temp. Windchill Dew Point Humidity Pressure Visibility Wind Dir Wind Speed Gust Speed Precip Events Conditions
12:15 AM 41.0 °F - 41.0 °F 100% 29.91 in 7.0 mi Calm Calm - N/A   Overcast
12:35 AM 41.0 °F - 41.0 °F 100% 29.89 in 5.0 mi Calm Calm - N/A   Overcast
1:15 AM 41.0 °F - 41.0 °F 100% 29.88 in 3.0 mi Calm Calm - N/A   Overcast
1:35 AM 41.0 °F - 41.0 °F 100% 29.87 in 2.5 mi Calm Calm - N/A   Overcast
1:55 AM 41.0 °F - 41.0 °F 100% 29.86 in 3.0 mi Calm Calm - N/A   Overcast
2:15 AM 41.0 °F - 41.0 °F 100% 29.85 in 3.0 mi Calm Calm - N/A   Overcast
2:35 AM 41.0 °F - 41.0 °F 100% 29.85 in 2.5 mi Calm Calm - N/A   Overcast
2:55 AM 41.0 °F - 41.0 °F 100% 29.84 in 1.0 mi Calm Calm - N/A   Overcast
3:15 AM 41.0 °F - 41.0 °F 100% 29.84 in 1.5 mi Calm Calm - N/A   Overcast
3:35 AM 39.2 °F - 39.2 °F 100% 29.82 in 2.0 mi Calm Calm - N/A   Overcast
3:55 AM 41.0 °F - 41.0 °F 100% 29.80 in 1.5 mi Calm Calm - N/A   Overcast
4:15 AM 39.2 °F - 39.2 °F 100% 29.79 in 4.0 mi Calm Calm - N/A   Overcast
4:35 AM 39.2 °F 35.9 °F 39.2 °F 100% 29.79 in 4.0 mi SW 4.6 mph - N/A   Overcast
4:55 AM 39.2 °F 35.9 °F 39.2 °F 100% 29.79 in 7.0 mi SSW 4.6 mph - N/A   Overcast
5:15 AM 39.2 °F 35.9 °F 39.2 °F 100% 29.78 in 5.0 mi SSW 4.6 mph - N/A   Overcast
5:35 AM 39.2 °F - 39.2 °F 100% 29.78 in 4.0 mi Calm Calm - N/A   Overcast
5:55 AM 39.2 °F - 39.2 °F 100% 29.77 in 2.5 mi Calm Calm - N/A   Overcast
6:15 AM 39.2 °F 37.0 °F 39.2 °F 100% 29.78 in 2.5 mi WNW 3.5 mph - N/A   Overcast
6:35 AM 39.2 °F - 39.2 °F 100% 29.79 in 3.0 mi Calm Calm - N/A   Overcast
6:55 AM 39.2 °F - 39.2 °F 100% 29.80 in 2.0 mi Calm Calm - N/A   Overcast
7:15 AM 39.2 °F - 39.2 °F 100% 29.80 in 3.0 mi Calm Calm - N/A   Overcast
7:35 AM 39.2 °F - 39.2 °F 100% 29.81 in 2.0 mi Calm Calm - N/A   Overcast
7:55 AM 39.2 °F - 39.2 °F 100% 29.82 in 1.2 mi Calm Calm - N/A   Overcast
8:15 AM 39.2 °F 35.0 °F 39.2 °F 100% 29.84 in 2.5 mi North 5.8 mph - N/A   Overcast
8:35 AM 39.2 °F - 39.2 °F 100% 29.83 in 7.0 mi Calm Calm - N/A   Overcast
8:55 AM 39.2 °F - 39.2 °F 100% 29.84 in 7.0 mi Calm Calm - N/A   Overcast
9:15 AM 39.2 °F - 39.2 °F 100% 29.84 in 7.0 mi Calm Calm - N/A   Overcast
9:35 AM 41.0 °F - 41.0 °F 100% 29.84 in 7.0 mi Calm Calm - N/A   Overcast
9:55 AM 41.0 °F - 41.0 °F 100% 29.83 in 7.0 mi Calm Calm - N/A   Overcast
10:15 AM 41.0 °F - 41.0 °F 100% 29.83 in 7.0 mi Calm Calm - N/A   Overcast
10:35 AM 41.0 °F 39.0 °F 41.0 °F 100% 29.84 in 5.0 mi SW 3.5 mph - N/A   Overcast
10:55 AM 41.0 °F 39.0 °F 41.0 °F 100% 29.84 in 7.0 mi SW 3.5 mph - N/A   Overcast
11:15 AM 42.8 °F 40.1 °F 42.8 °F 100% 29.84 in 7.0 mi South 4.6 mph - N/A   Overcast
11:35 AM 42.8 °F 40.1 °F 42.8 °F 100% 29.83 in 10.0 mi South 4.6 mph - N/A   Overcast
11:55 AM 44.6 °F 43.1 °F 44.6 °F 100% 29.83 in 10.0 mi SSE 3.5 mph - N/A   Overcast
12:15 PM 44.6 °F - 44.6 °F 100% 29.82 in 10.0 mi Calm Calm - N/A   Overcast
12:35 PM 46.4 °F 45.2 °F 44.6 °F 93% 29.82 in 10.0 mi SW 3.5 mph - N/A   Mostly Cloudy
12:55 PM 46.4 °F 43.5 °F 46.4 °F 100% 29.82 in 10.0 mi SW 5.8 mph - N/A   Mostly Cloudy
1:15 PM 48.2 °F - 46.4 °F 93% 29.82 in 10.0 mi WSW 4.6 mph - N/A   Scattered Clouds
1:35 PM 51.8 °F - 46.4 °F 82% 29.80 in 10.0 mi SW 5.8 mph - N/A   Scattered Clouds
1:55 PM 53.6 °F - 46.4 °F 77% 29.79 in 10.0 mi South 4.6 mph - N/A   Scattered Clouds
2:15 PM 55.4 °F - 44.6 °F 67% 29.78 in 10.0 mi South 4.6 mph - N/A   Clear
2:35 PM 57.2 °F - 44.6 °F 63% 29.76 in 10.0 mi SSW 6.9 mph - N/A   Clear
2:55 PM 59.0 °F - 42.8 °F 55% 29.74 in 10.0 mi WSW 9.2 mph - N/A   Clear
3:15 PM 60.8 °F - 44.6 °F 55% 29.74 in 10.0 mi WSW 6.9 mph - N/A   Clear
3:35 PM 62.6 °F - 44.6 °F 52% 29.74 in 10.0 mi West 5.8 mph - N/A   Clear
3:55 PM 62.6 °F - 37.4 °F 39% 29.75 in 10.0 mi West 13.8 mph 20.7 mph N/A   Clear
4:15 PM 62.6 °F - 33.8 °F 34% 29.74 in 10.0 mi West 16.1 mph 23.0 mph N/A   Clear
4:35 PM 64.4 °F - 32.0 °F 30% 29.75 in 10.0 mi WSW 16.1 mph 20.7 mph N/A   Clear
4:55 PM 62.6 °F - 32.0 °F 32% 29.75 in 10.0 mi West 15.0 mph 21.9 mph N/A   Clear
5:15 PM 64.4 °F - 28.4 °F 26% 29.76 in 10.0 mi West 15.0 mph 21.9 mph N/A   Scattered Clouds
5:35 PM 62.6 °F - 23.0 °F 22% 29.77 in 10.0 mi West 26.5 mph 33.4 mph N/A   Clear
5:55 PM 60.8 °F - 21.2 °F 22% 29.78 in 10.0 mi West 18.4 mph 31.1 mph N/A   Clear
6:15 PM 60.8 °F - 17.6 °F 19% 29.79 in 10.0 mi West 16.1 mph 20.7 mph N/A   Clear
6:35 PM 60.8 °F - 17.6 °F 19% 29.80 in 10.0 mi West 17.3 mph 25.3 mph N/A   Clear
6:55 PM 59.0 °F - 17.6 °F 20% 29.81 in 10.0 mi WNW 13.8 mph 19.6 mph N/A   Clear
7:15 PM 57.2 °F - 14.0 °F 18% 29.83 in 10.0 mi West 15.0 mph 23.0 mph N/A   Clear
7:35 PM 57.2 °F - 14.0 °F 18% 29.84 in 10.0 mi West 17.3 mph 20.7 mph N/A   Clear
7:55 PM 55.4 °F - 14.0 °F 20% 29.84 in 10.0 mi West 10.4 mph 20.7 mph N/A   Clear
8:15 PM 55.4 °F - 14.0 °F 20% 29.86 in 10.0 mi West 12.7 mph 21.9 mph N/A   Clear
8:35 PM 55.4 °F - 12.2 °F 18% 29.87 in 10.0 mi WNW 16.1 mph 21.9 mph N/A   Clear
8:55 PM 55.4 °F - 12.2 °F 18% 29.88 in 10.0 mi West 13.8 mph 25.3 mph N/A   Clear
9:15 PM 53.6 °F - 12.2 °F 19% 29.89 in 10.0 mi West 17.3 mph 26.5 mph N/A   Clear
9:35 PM 53.6 °F - 14.0 °F 21% 29.90 in 10.0 mi WNW 8.1 mph 18.4 mph N/A   Clear
9:55 PM 51.8 °F - 15.8 °F 24% 29.91 in 10.0 mi West 18.4 mph 25.3 mph N/A   Clear
10:15 PM 51.8 °F - 10.4 °F 19% 29.92 in 10.0 mi WNW 11.5 mph 27.6 mph N/A   Clear
10:35 PM 50.0 °F - 12.2 °F 22% 29.93 in 10.0 mi West 9.2 mph 17.3 mph N/A   Clear
11:15 PM 50.0 °F - 10.4 °F 20% 29.93 in 10.0 mi West 11.5 mph 18.4 mph N/A   Clear
11:35 PM 48.2 °F - 12.2 °F 24% 29.95 in 10.0 mi WSW 15.0 mph 19.6 mph N/A   Clear
11:55 PM 48.2 °F - 10.4 °F 22% 29.96 in 10.0 mi West 12.7 mph 20.7 mph N/A   Clear